EST,Max TemperatureF,Mean TemperatureF,Min TemperatureF,Max Dew PointF,MeanDew PointF,Min DewpointF,Max Humidity, Mean Humidity, Min Humidity, Max Sea Level PressureIn, Mean Sea Level PressureIn, Min Sea Level PressureIn, Max VisibilityMiles, Mean VisibilityMiles, Min VisibilityMiles, Max Wind SpeedMPH, Mean Wind SpeedMPH, Max Gust SpeedMPH,PrecipitationIn, CloudCover, Events, WindDirDegrees
2013-1-1,32,23,13,29,22,11,92,83,74,30.17,30.09,30.03,9,4,1,13,6,15,0.00,6,,314
2013-1-2,18,12,6,12,5,-1,92,70,47,30.28,30.22,30.14,10,8,4,8,3,,0.00,0,,236
2013-1-3,29,22,14,22,13,0,75,61,47,30.30,30.24,30.17,10,9,6,18,10,22,0.00,6,,245
2013-1-4,28,23,18,17,14,11,80,68,55,30.32,30.29,30.25,10,10,8,21,12,26,0.00,1,,249
2013-1-5,37,29,21,30,24,16,84,69,54,30.33,30.22,30.12,10,6,1,17,9,23,T,5,Snow,212
2013-1-6,48,40,33,29,24,17,82,59,45,30.34,30.12,29.99,10,7,4,21,12,26,T,8,Rain,256
2013-1-7,46,36,25,22,20,16,75,57,36,30.44,30.35,30.22,10,6,2,17,6,23,0.00,1,,208
2013-1-8,43,34,24,28,24,20,70,60,49,30.28,30.24,30.20,10,8,5,14,7,16,0.00,0,,200
2013-1-9,48,41,33,36,32,27,79,66,53,30.51,30.31,30.16,10,10,7,18,11,25,0.03,2,Rain,241
2013-1-10,46,38,29,36,29,24,78,69,59,30.52,30.34,30.08,10,9,5,18,9,24,0.05,4,Rain,122
2013-1-11,59,53,46,52,47,39,89,78,67,30.03,29.88,29.81,10,9,2,22,12,35,0.51,6,Rain,204
2013-1-12,63,58,53,54,51,44,93,80,66,29.97,29.85,29.70,10,5,1,15,8,22,1.15,5,Rain-Thunderstorm,134
2013-1-13,64,45,25,59,38,19,89,82,75,30.18,29.88,29.67,10,6,1,29,11,41,1.07,8,Rain,320
2013-1-14,25,22,19,18,15,12,81,75,68,30.45,30.36,30.18,10,8,2,18,8,23,T,7,Snow,331
2013-1-15,31,26,21,21,18,15,77,68,58,30.41,30.32,30.12,10,9,5,15,8,18,T,4,,58
2013-1-16,36,31,26,22,20,17,81,64,47,30.09,30.03,29.96,10,9,5,16,8,22,0.00,4,,248
2013-1-17,39,32,24,27,22,13,72,62,52,30.41,30.20,30.06,10,10,7,20,9,23,0.00,3,,286
2013-1-18,39,30,21,22,17,13,71,56,40,30.50,30.35,30.12,10,10,10,25,12,36,0.00,0,,216
2013-1-19,53,46,38,33,26,21,56,47,38,30.12,29.98,29.85,10,10,10,26,16,38,0.00,0,,223
2013-1-20,47,35,23,31,13,8,62,55,47,30.26,30.15,29.87,10,10,10,32,14,41,0.00,3,,293
2013-1-21,23,16,9,10,4,-6,67,58,48,30.27,30.15,30.09,10,6,0,26,16,33,T,6,Snow,285
2013-1-22,15,10,5,-2,-4,-6,69,58,46,30.40,30.33,30.24,10,9,2,21,11,28,T,4,Snow,285
2013-1-23,22,17,11,11,3,-3,67,55,43,30.36,30.24,30.12,10,8,2,23,7,28,T,8,Snow,255
2013-1-24,23,16,9,10,5,2,67,56,45,30.61,30.46,30.18,10,9,2,23,9,28,T,1,Snow,38
2013-1-25,27,23,19,18,13,6,77,65,52,30.40,30.14,30.02,10,6,0,14,8,20,0.09,8,Snow,184
2013-1-26,28,19,10,15,12,7,80,67,53,30.46,30.32,30.11,10,10,8,13,6,48,0.00,4,,301
2013-1-27,38,25,11,33,20,8,82,69,56,30.44,30.30,30.08,8,6,3,18,9,23,0.24,4,Rain,145
2013-1-28,52,45,38,49,45,35,93,87,80,30.09,30.00,29.95,7,3,0,20,13,29,0.12,8,Fog-Rain,208
2013-1-29,65,58,51,55,52,48,93,83,72,29.97,29.80,29.44,10,6,0,25,17,36,0.00,7,Fog,195
2013-1-30,67,49,30,56,41,23,89,79,68,29.54,29.36,29.23,10,8,1,31,16,46,0.89,7,Rain-Snow,246
2013-1-31,30,21,12,21,13,0,74,66,57,30.09,29.82,29.54,10,6,0,33,20,46,T,8,Snow,275